[[{"header":{"parameterUnit":"m.s-1","parameterCategory":1,"la1":30.2991,"la2":30.254,"lo1":-89.0895,"lo2":-89.0444,"dy":0.0017,"dx":0.0017,"nx":28,"ny":28,"refTime":"2025-05-26T03:00:00:Z","depth":0,"parameterNumber":2,"parameterNumberName":"U-component_of_WINDS"},"data":[0,0,0,0,0,0,0,0,0,0,0,0,0,0,0,0,0,0,0,0,0,0,0,0,0,0,0,0,0,0,0,0,0,0,0,0,0,0,0,0,0,0,0,0,0,0,0,0,0,0,0,0,0,0,0,0,0,0,-1.4401,-1.44,0,-1.4281,-1.4279,-1.4278,-1.4191,-1.419,-1.4189,-1.4189,-1.4064,-1.4061,-1.4059,0,0,0,0,0,0,0,0,0,0,0,0,0,-1.4556,-1.4554,-1.4401,-1.44,-1.4398,-1.4281,-1.4279,-1.4277,-1.4191,-1.419,-1.4189,-1.4188,-1.4065,-1.4062,-1.4058,0,0,0,0,0,0,0,0,0,0,0,0,0,-1.4468,-1.4553,-1.4402,-1.4341,-1.4334,-1.4281,-1.4279,-1.4277,-1.4191,-1.419,-1.4189,-1.4188,-1.4066,-1.4062,-1.4058,-1.4055,0,0,-1.4046,-1.4044,0,0,0,0,0,0,0,0,-1.4473,-1.4462,-1.4351,-1.4345,-1.4338,-1.425,-1.4288,-1.4203,-1.4191,-1.4245,-1.4189,-1.4187,-1.4126,-1.4117,-1.4097,-1.4049,-1.4044,-1.4045,-1.4043,-1.4041,-1.404,0,0,0,0,0,0,0,-1.4479,-1.4467,-1.4353,-1.435,-1.4341,-1.432,-1.4306,-1.4271,-1.4193,-1.4241,-1.4234,-1.4221,-1.4122,-1.4101,-1.4094,-1.4042,-1.4046,-1.4042,-1.404,-1.4038,-1.3985,-1.3986,0,0,0,0,0,0,-1.4495,-1.4472,-1.4357,-1.435,-1.4404,-1.4318,-1.4302,-1.4279,-1.4194,-1.418,-1.4222,-1.4217,-1.4108,-1.4098,-1.4089,-1.4079,-1.4041,-1.4038,-1.4035,-1.3984,-1.3985,-1.3986,0,0,0,0,0,0,-1.4498,-1.4485,-1.4362,-1.4409,-1.4392,-1.4316,-1.4291,-1.4277,-1.4256,-1.418,-1.4165,-1.4215,-1.4107,-1.4094,-1.4064,-1.4073,-1.4036,-1.4032,-1.3983,-1.3984,-1.3986,-1.406,0,0,0,0,0,0,-1.4503,-1.4487,-1.4485,-1.441,-1.439,-1.434,-1.4291,-1.4276,-1.4249,-1.4242,-1.4169,-1.4156,-1.4105,-1.407,-1.406,-1.4067,-1.4029,-1.3981,-1.3983,-1.3985,-1.4056,-1.4064,-1.407,0,0,0,0,0,-1.4509,-1.4511,-1.4486,-1.4472,-1.4386,-1.4341,-1.4329,-1.4272,-1.425,-1.4248,-1.4199,-1.4158,-1.4075,-1.4068,-1.4056,-1.4062,-1.3981,-1.3983,-1.3985,-1.4053,-1.4063,-1.407,0,0,0,0,0,0,-1.4589,-1.45,-1.4471,-1.4449,-1.4403,-1.4326,-1.4321,-1.4283,-1.4242,-1.4237,-1.4167,-1.4152,-1.4128,-1.4092,-1.4086,-1.4054,-1.4022,-1.4022,-1.4079,-1.4087,-1.4094,-1.4102,-1.4026,0,0,0,0,0,-1.4605,-1.4575,-1.4499,-1.4487,-1.4465,-1.4398,-1.4376,-1.4335,-1.4285,-1.4265,-1.4214,-1.4166,-1.4129,-1.4106,-1.4068,-1.4051,-1.4034,-1.4049,-1.4056,-1.4062,-1.4063,-1.4051,-1.4057,-1.3993,-1.3993,-1.3993,0,0,-1.4635,-1.4583,-1.4569,-1.4502,-1.4461,-1.4432,-1.4382,-1.4353,-1.4331,-1.426,-1.4228,-1.419,-1.4132,-1.4108,-1.4095,-1.4077,-1.4077,-1.4065,-1.4071,-1.4067,-1.4054,-1.406,-1.4065,-1.3995,-1.3994,-1.3994,0,0,-1.4677,-1.4635,-1.462,-1.458,-1.452,-1.4475,-1.4472,-1.4401,-1.4372,-1.4339,-1.4286,-1.4258,-1.4196,-1.4156,-1.4129,-1.4156,-1.4116,-1.4145,-1.4181,-1.417,-1.4175,-1.4179,-1.4188,-1.4193,-1.4146,-1.4146,-1.4146,0,-1.4723,-1.4677,-1.4617,-1.4591,-1.4563,-1.4498,-1.4482,-1.4447,-1.4378,-1.436,-1.4341,-1.4261,-1.4218,-1.4184,-1.4191,-1.417,-1.4164,-1.4153,-1.418,-1.4183,-1.4186,-1.4194,-1.4197,-1.415,-1.415,-1.4149,-1.4149,0,-1.4736,-1.4706,-1.4701,-1.4635,-1.4607,-1.4586,-1.4522,-1.45,-1.4463,-1.442,-1.4387,-1.4333,-1.4282,-1.4271,-1.4234,-1.4232,-1.4223,-1.4193,-1.4159,-1.4197,-1.4203,-1.4206,-1.4156,-1.4154,-1.4153,-1.4152,0,0,-1.4824,-1.4726,-1.4725,-1.4695,-1.4624,-1.4599,-1.4575,-1.4526,-1.4508,-1.4463,-1.4441,-1.439,-1.4362,-1.433,-1.4288,-1.4279,-1.4303,-1.425,-1.4247,-1.4261,-1.4297,-1.4319,-1.4324,-1.4277,-1.4278,-1.4278,-1.4301,0,-1.4854,-1.4809,-1.4754,-1.4727,-1.4697,-1.4636,-1.4615,-1.457,-1.4529,-1.4498,-1.4452,-1.4417,-1.4383,-1.4364,-1.4352,-1.4303,-1.4309,-1.4301,-1.4255,-1.4255,-1.4271,-1.4327,-1.4351,-1.4376,-1.4304,-1.4304,-1.4304,0,-1.4883,-1.484,-1.4811,-1.4742,-1.4728,-1.4711,-1.4661,-1.4632,-1.4579,-1.455,-1.4515,-1.447,-1.4442,-1.4413,-1.4373,-1.4368,-1.4346,-1.432,-1.4319,-1.4312,-1.4281,-1.4321,-1.4382,-1.4386,-1.4307,-1.4307,-1.4307,0,-1.4949,-1.4885,-1.4859,-1.4835,-1.4754,-1.4743,-1.4709,-1.4655,-1.4629,-1.4586,-1.4568,-1.4522,-1.4497,-1.4462,-1.4406,-1.439,-1.4372,-1.4338,-1.4346,-1.4348,-1.4344,-1.4345,-1.4402,-1.4332,-1.4332,-1.4332,-1.4332,0,-1.4988,-1.4972,-1.4887,-1.4871,-1.4852,-1.4789,-1.4771,-1.4731,-1.4683,-1.4658,-1.4602,-1.458,-1.4507,-1.4476,-1.4432,-1.4405,-1.4394,-1.437,-1.4358,-1.4374,-1.4377,-1.4358,-1.4355,-1.4333,-1.4333,-1.4332,-1.4332,0,-1.5058,-1.5001,-1.4968,-1.4895,-1.4876,-1.4865,-1.4802,-1.4784,-1.474,-1.4709,-1.4698,-1.4629,-1.459,-1.4531,-1.4473,-1.4443,-1.4423,-1.4405,-1.4441,-1.4434,-1.4445,-1.4445,-1.4492,-1.4494,-1.4424,-1.4425,-1.4425,0,-1.5087,-1.5073,-1.4998,-1.4977,-1.4945,-1.4913,-1.4886,-1.4823,-1.4798,-1.4736,-1.4725,-1.4681,-1.4643,-1.4583,-1.4527,-1.4483,-1.4462,-1.4482,-1.4455,-1.4472,-1.4462,-1.4463,-1.4461,-1.4488,-1.4489,-1.449,-1.4491,0,-1.5143,-1.5115,-1.5078,-1.5032,-1.5002,-1.4962,-1.492,-1.4906,-1.4834,-1.4808,-1.4767,-1.4738,-1.4679,-1.4636,-1.4584,-1.4548,-1.4508,-1.45,-1.4499,-1.4515,-1.4537,-1.4524,-1.4458,-1.4499,-1.4498,-1.4497,-1.4497,-1.4496,-1.5192,-1.5177,-1.5122,-1.5083,-1.5045,-1.5007,-1.4986,-1.494,-1.4904,-1.4852,-1.4817,-1.4778,-1.4725,-1.4651,-1.4617,-1.4586,-1.4568,-1.4567,-1.4567,-1.4568,-1.4573,-1.4543,-1.4576,-1.4576,-1.4575,-1.4575,-1.4575,0,-1.5245,-1.5206,-1.5171,-1.5114,-1.5083,-1.5048,-1.4999,-1.4976,-1.4942,-1.4896,-1.4859,-1.4812,-1.477,-1.4712,-1.4666,-1.4651,-1.4631,-1.4641,-1.4641,-1.4633,-1.4592,-1.4597,-1.4658,-1.4658,-1.4658,-1.4658,-1.4658,-1.4658,-1.5268,-1.5241,-1.5207,-1.5159,-1.512,-1.5082,-1.5057,-1.5021,-1.4984,-1.4934,-1.4899,-1.4861,-1.481,-1.4759,-1.4719,-1.4703,-1.4688,-1.4704,-1.4682,-1.4644,-1.4636,-1.4629,-1.4633,-1.4701,-1.4701,-1.4726,-1.4726,-1.4726]},{"header":{"parameterUnit":"m.s-1","parameterCategory":1,"la1":30.2991,"la2":30.254,"lo1":-89.0895,"lo2":-89.0444,"dy":0.0017,"dx":0.0017,"nx":28,"ny":28,"refTime":"2025-05-26T03:00:00:Z","depth":0,"parameterNumber":3,"parameterNumberName":"V-component_of_WINDS"},"data":[0,0,0,0,0,0,0,0,0,0,0,0,0,0,0,0,0,0,0,0,0,0,0,0,0,0,0,0,0,0,0,0,0,0,0,0,0,0,0,0,0,0,0,0,0,0,0,0,0,0,0,0,0,0,0,0,0,0,5.1775,5.1775,0,5.1762,5.1762,5.1761,5.174,5.174,5.1739,5.1739,5.1721,5.1721,5.1721,0,0,0,0,0,0,0,0,0,0,0,0,0,5.1779,5.1779,5.1775,5.1775,5.1775,5.1762,5.1762,5.1761,5.174,5.174,5.1739,5.1739,5.1721,5.1721,5.1721,0,0,0,0,0,0,0,0,0,0,0,0,0,5.1772,5.1779,5.1775,5.1762,5.1761,5.1762,5.1762,5.1761,5.174,5.174,5.1739,5.1738,5.1721,5.1721,5.1721,5.1731,0,0,5.172,5.172,0,0,0,0,0,0,0,0,5.1773,5.1772,5.1764,5.1763,5.1762,5.1752,5.1756,5.1751,5.174,5.1748,5.1739,5.1738,5.1732,5.173,5.1729,5.173,5.173,5.172,5.172,5.172,5.172,0,0,0,0,0,0,0,5.1773,5.1773,5.1769,5.1764,5.1763,5.1757,5.1755,5.1755,5.1743,5.1747,5.1746,5.1745,5.1731,5.1729,5.1729,5.1729,5.172,5.172,5.172,5.172,5.1741,5.1741,0,0,0,0,0,0,5.1776,5.1773,5.177,5.1769,5.1766,5.1757,5.1755,5.1756,5.1743,5.1741,5.1745,5.1744,5.173,5.1729,5.1728,5.1741,5.172,5.172,5.172,5.174,5.1741,5.1742,0,0,0,0,0,0,5.1776,5.1776,5.177,5.1771,5.177,5.1758,5.1758,5.1756,5.1754,5.1741,5.1739,5.1746,5.1729,5.1728,5.1731,5.174,5.172,5.172,5.1739,5.174,5.1741,5.1766,0,0,0,0,0,0,5.1776,5.1776,5.178,5.1771,5.177,5.1775,5.1759,5.1756,5.1755,5.1753,5.1742,5.1739,5.1729,5.1732,5.1731,5.1739,5.1719,5.1738,5.174,5.1741,5.1764,5.1767,5.177,0,0,0,0,0,5.1776,5.1786,5.1781,5.178,5.1775,5.1775,5.1775,5.1764,5.1755,5.1759,5.1752,5.174,5.1739,5.1732,5.1731,5.1739,5.1738,5.1739,5.1741,5.1763,5.1767,5.177,0,0,0,0,0,0,5.1794,5.1785,5.1778,5.1785,5.1782,5.1772,5.1776,5.1768,5.1765,5.1763,5.1748,5.1746,5.1752,5.1746,5.1738,5.175,5.1737,5.1738,5.1754,5.1757,5.1761,5.1762,5.1719,0,0,0,0,0,5.1799,5.1802,5.1793,5.18,5.1799,5.1788,5.1788,5.178,5.1775,5.1773,5.1765,5.1759,5.1758,5.1757,5.1755,5.1763,5.1761,5.1769,5.1772,5.1774,5.1776,5.1781,5.1785,5.1746,5.1746,5.1746,0,0,5.1809,5.1804,5.1806,5.1803,5.18,5.1802,5.1787,5.1789,5.1791,5.1772,5.1776,5.177,5.1763,5.177,5.1772,5.1765,5.1786,5.1776,5.1778,5.1778,5.1783,5.1787,5.179,5.1747,5.1747,5.1747,0,0,5.1828,5.1825,5.1831,5.1829,5.1824,5.1818,5.182,5.1812,5.1808,5.1812,5.1799,5.18,5.1798,5.1794,5.1792,5.1813,5.1802,5.1813,5.1829,5.1834,5.1837,5.184,5.1849,5.1852,5.1814,5.1814,5.1814,0,5.1841,5.1845,5.1835,5.184,5.184,5.1826,5.1833,5.183,5.1824,5.1824,5.1817,5.1816,5.1809,5.1816,5.1822,5.182,5.1821,5.1813,5.1838,5.1841,5.1843,5.1851,5.1854,5.1815,5.1815,5.1815,5.1815,0,5.1861,5.1864,5.187,5.1868,5.1868,5.1873,5.1865,5.1866,5.1859,5.1853,5.1858,5.1851,5.1848,5.1849,5.1841,5.1855,5.1851,5.1841,5.1827,5.1848,5.1856,5.1859,5.1817,5.1817,5.1816,5.1816,0,0,5.1889,5.1884,5.1887,5.1887,5.1882,5.1884,5.1889,5.1889,5.1891,5.1887,5.1892,5.1892,5.1884,5.1881,5.1873,5.1878,5.1897,5.1868,5.1867,5.1874,5.1914,5.1922,5.1926,5.1891,5.1891,5.1891,5.1915,0,5.1908,5.1918,5.1911,5.1922,5.1926,5.1915,5.1919,5.1917,5.1912,5.1914,5.1908,5.1909,5.1897,5.1896,5.1901,5.1894,5.1905,5.1892,5.1894,5.1894,5.1897,5.1929,5.1937,5.196,5.1918,5.1918,5.1918,0,5.1931,5.1932,5.1945,5.1942,5.1943,5.1948,5.1948,5.195,5.1947,5.1943,5.1943,5.1934,5.1938,5.1926,5.1932,5.1924,5.1924,5.1922,5.1922,5.1922,5.1908,5.1931,5.1966,5.197,5.1923,5.1922,5.1922,0,5.1952,5.1956,5.1965,5.1965,5.1962,5.1966,5.1964,5.1961,5.1962,5.1962,5.1963,5.1962,5.1962,5.1962,5.1953,5.1945,5.1962,5.1948,5.1959,5.1959,5.1963,5.1963,5.1999,5.1962,5.1962,5.1962,5.1962,0,5.1974,5.1982,5.1975,5.198,5.199,5.1982,5.1991,5.1988,5.1986,5.199,5.1979,5.1983,5.1971,5.1974,5.1967,5.1975,5.1974,5.1971,5.1969,5.1973,5.1973,5.1973,5.1971,5.1963,5.1963,5.1963,5.1963,0,5.1999,5.1994,5.2003,5.2,5.2,5.2007,5.2004,5.2009,5.2005,5.2011,5.2011,5.2004,5.2007,5.1999,5.1999,5.1995,5.2007,5.2002,5.2008,5.2007,5.2019,5.2019,5.2057,5.2063,5.2021,5.2022,5.2022,0,5.2013,5.202,5.2019,5.2022,5.2022,5.2027,5.2029,5.2022,5.2024,5.2023,5.2028,5.2031,5.2033,5.2038,5.2032,5.2033,5.2029,5.2043,5.2029,5.2033,5.203,5.2031,5.2032,5.2045,5.2046,5.2046,5.2046,0,5.204,5.2038,5.2042,5.2047,5.205,5.2052,5.2054,5.2057,5.2049,5.2052,5.2057,5.2058,5.2061,5.2064,5.2065,5.2062,5.2053,5.2051,5.2054,5.2058,5.2062,5.2061,5.2017,5.205,5.205,5.2049,5.2049,5.2049,5.206,5.2067,5.2068,5.2074,5.2075,5.2077,5.2083,5.208,5.2084,5.2088,5.2083,5.2089,5.2087,5.2088,5.2087,5.2091,5.2084,5.2088,5.2089,5.209,5.2093,5.2061,5.2091,5.209,5.209,5.209,5.209,0,5.2088,5.2089,5.2094,5.2099,5.2103,5.2097,5.2099,5.2103,5.2109,5.211,5.2113,5.2119,5.2122,5.2118,5.2121,5.2125,5.2121,5.2126,5.2126,5.2126,5.2098,5.2096,5.213,5.213,5.213,5.213,5.2129,5.2129,5.2102,5.2114,5.2113,5.2125,5.2125,5.2133,5.2135,5.2137,5.2138,5.2146,5.215,5.2148,5.2147,5.215,5.2153,5.2152,5.2154,5.216,5.2157,5.2131,5.2127,5.2124,5.2122,5.216,5.216,5.2185,5.2185,5.2185]}]]